Location: Lalanga
(4.5882°N, 32.9072°E)
Time: 03:42:50
(UTC+00:00)

CZ-2D R/B - Pass Details

Date: 24 January 2020
Orbit: 523 x 537 km, 97.4° (Epoch: 18 February)

Event Time Altitude Azimuth Distance (km) Brightness Sun altitude
Rises 17:00:23 0° 173° (S) 2,647 7.0 -15.7°
Reaches altitude 10° 17:02:29 10° 175° (S) 1,758 6.1 -16.2°
Maximum altitude 17:06:16 70° 259° (W) 558 3.5 -17.0°
Drops below altitude 10° 17:10:03 10° 343° (NNW) 1,759 5.9 -17.9°
Sets 17:12:09 0° 346° (NNW) 2,648 6.8 -18.4°
